Regional Weather Roundup
Issued by NWS

Home | Current Version | Previous Version | Text Only | Print | Product List | Glossary On
Versions: 1 2 3 4 5 6 7 8 9 10 11 12 13 14 15 16 17 18 19 20 21 22 23 24 25 26 27 28 29 30 31 32 33 34 35 36 37 38 39 40 41 42 43 44 45 46 47 48 49 50
000
ASUS43 KIND 252209
RWRIN

WEATHER ROUNDUP FOR INDIANA
NATIONAL WEATHER SERVICE INDIANAPOLIS IN
500 PM EST SUN JAN 25 2015

NOTE: "FAIR" INDICATES FEW OR NO CLOUDS BELOW 12,000 FEET WITH NO
SIGNIFICANT WEATHER AND/OR OBSTRUCTIONS TO VISIBILITY.

* - STATION DOES NOT REPORT WEATHER SUCH AS PRECIPITATION OR FOG.

+ - STATION NOT QUALITY CONTROLLED BY THE NATIONAL WEATHER SERVICE.
    USE DATA WITH CAUTION...ESPECIALLY DEWPOINT AND RELATIVE
    HUMIDITY OBSERVATIONS.

INZ001>003-010>013-019-020-252300-
NORTHWEST INDIANA

CITY           SKY/WX    TMP DP  RH WIND       PRES   REMARKS
GARY /AIRPORT/ LGT SNOW N/A N/A N/A N17G35    29.87R
KNOX *+        CLOUDY    28  19  68 NE14      29.82R WCI  17
LA PORTE +     LGT SNOW  29  27  92 NE13G20   29.84R WCI  18
MICHIGAN CITY+ LGT SNOW  28  21  74 NE7       29.86R WCI  21
MONTICELLO +   LGT SNOW  28  27  94 NE14G24   29.76R WCI  17
RENSSELAER +   MIX PCPN  32  32 100 NE20G26   29.79R WCI  20
VALPARAISO     LGT SNOW  28  26  92 NE10      29.83R VSB 1   WCI  19

$$

LMZ046-743>745-252300-
SOUTHERN LAKE MICHIGAN

STATION/POSITION TIME  TEMP WIND        PRES
                       AIR  DIR/SP/G
                 (UTC) (F)  (DEG/KT/KT) (MB)
MICHIGAN CITY    2200   26   20/ 21/ 24   N/A

$$

INZ004-005-014>016-021>024-252300-
NORTH CENTRAL INDIANA

CITY           SKY/WX    TMP DP  RH WIND       PRES   REMARKS
GOSHEN         LGT SNOW  26  21  81 NE18G25   29.83R WCI  13
LOGANSPORT +   LGT SNOW  28  27  93 NE12G20   29.78R VSB 3/4 WCI  18
PERU/GRISSOM   LGT SNOW  26  24  91 NE21      29.75R FOG     WCI  12
ROCHESTER +    LGT SNOW  30  28  93 NE13G25   29.80R WCI  20
SOUTH BEND     LGT SNOW  26  22  84 NE9       29.85R VSB 1   WCI  17
WARSAW +       LGT SNOW  27  23  86 E15G24    29.81R VSB 3/4 WCI  15

$$

INZ006>009-017-018-025>027-252300-
NORTHEAST INDIANA

CITY           SKY/WX    TMP DP  RH WIND       PRES   REMARKS
ANGOLA *+      CLOUDY    23  19  86 E13       29.83R WCI  11
AUBURN +       LGT SNOW  25  21  86 NE17G24   29.83R VSB 1   WCI  11
FORT WAYNE     SNOW      24  21  88 NE20G28   29.80R VSB 1/2 WCI  10
HUNTINGTON +   LGT SNOW  24  19  83 NE13      29.78R VSB 1   WCI  12

$$

INZ028-029-035-036-043>045-051>053-252300-
WEST CENTRAL INDIANA

CITY           SKY/WX    TMP DP  RH WIND       PRES   REMARKS
GREENCASTLE +  CLOUDY    37  32  81 NE7       29.65R
LAFAYETTE      LGT SNOW  29  27  92 NE18G24   29.74R FOG     WCI  16
TERRE HAUTE    LGT RAIN  39  37  92 N5        29.65R FOG

$$

INZ030>032-037>040-046>048-054>057-064-065-252300-
CENTRAL INDIANA

CITY           SKY/WX    TMP DP  RH WIND       PRES   REMARKS
CP ATTERBURY + LGT RAIN  36  36 100 CALM      29.66R
COLUMBUS       LGT RAIN  36  34  93 CALM      29.66R FOG
INDIANAPOLIS   DRIZZLE   33  33 100 NE14      29.66R FOG     WCI  23
-EAGLE CREEK   CLOUDY    34  32  92 NE12      29.67R FOG     WCI  25
KOKOMO *+      CLOUDY    27  21  80 NE23G31   29.75R WCI  12
MARION +       CLOUDY    26  23  89 NE21G26   29.75R WCI  12
MT COMFORT *+  CLOUDY    34 N/A N/A NE10      29.67R WCI  26
SHELBYVILLE    CLOUDY    37  34  89 E8        29.65R FOG
ZIONSVILLE +   CLOUDY    32  29  90 NE17      29.69R WCI  21

$$

INZ033-034-041-042-049-050-058-059-252300-
EAST CENTRAL INDIANA

CITY           SKY/WX    TMP DP  RH WIND       PRES   REMARKS
MUNCIE         LGT SNOW  28  26  92 NE18      29.71R VSB 3/4 WCI  15

$$

INZ060-061-067>069-081>083-085>088-252300-
SOUTHWEST INDIANA

CITY           SKY/WX    TMP DP  RH WIND       PRES   REMARKS
EVANSVILLE     LGT RAIN  43  40  89 S8        29.62R FOG
HUNTINGBURG *+ CLOUDY    41  37  87 S7        29.63R
WASHINGTON +   DRIZZLE   40  36  87 SE3       29.62R

$$

INZ062-063-066-070>080-084-089>092-252300-
SOUTH CENTRAL AND SOUTHEAST INDIANA

CITY           SKY/WX    TMP DP  RH WIND       PRES   REMARKS
BLOOMINGTON    LGT RAIN  39  38  96 NE3       29.63R FOG
SEYMOUR +      DRIZZLE   39  39 100 CALM      29.64

$$



USA.gov is the U.S. government's official web portal to all federal, state and local government web resources and services.